Dewpoint
60 52 52 49 45 45 41 34 25 32 30 24 18 23 18 25 25 22 22 22 21 26 30 28 29 34 25 27 29 31 33 25 22 20 34 53 62 64 65 66 66 66 67 68 68 68 69 70 70 70 70 70 71 71 71 71 71 71 70 70 70 70 70 70 70 69 69 69 68 68 68 69 68 68 68 68 65 65 65 65 64 64 63 63 63 63 63 63 64 66 67 67 67 68 68 68 68
52 50 50 49 43 42 32 31 29 22 22 17 21 21 23 24 25 21 20 20 27 33 36 31 34 42 43 43 42 39 41 48 44 51 54 57 61 64 66 67 66 66 68 68 68 67 68 69 69 70 70 70 71 71 71 71 71 70 70 70 69 69 69 69 69 69 69 69 68 68 69 68 68 68 68 68 66 65 65 64 64 64 63 63 63 63 63 63 64 66 67 69 69 68 68 68 68
47 45 45 44 40 39 33 32 24 18 17 9 17 19 25 21 20 21 20 23 37 40 40 38 38 36 35 36 33 31 38 52 53 53 55 59 59 60 65 66 67 68 67 68 67 67 68 69 69 70 71 70 71 71 71 70 70 70 70 69 69 69 68 68 68 68 69 69 68 68 69 68 68 68 68 68 67 65 65 64 63 63 63 63 63 63 63 63 64 66 68 69 69 68 68 68 68
53 49 44 43 33 34 27 25 25 17 16 15 12 23 23 22 20 20 28 38 39 36 34 34 33 42 35 27 34 40 44 48 53 54 54 58 57 62 64 65 68 67 68 68 68 68 69 68 69 70 70 70 71 71 70 70 70 70 70 69 69 68 68 68 68 68 69 68 68 68 68 68 67 68 68 67 65 65 64 64 63 63 63 63 63 62 63 65 64 65 65 66 67 67 67 67 67
53 44 48 39 41 31 32 30 23 17 13 13 13 22 23 21 20 27 34 39 35 29 29 35 37 45 46 42 39 33 43 50 52 56 55 60 62 63 64 66 68 67 68 68 68 69 69 69 69 70 70 70 71 71 70 70 69 69 69 69 69 68 68 68 69 69 69 69 68 68 68 67 67 68 67 67 65 64 64 64 63 63 63 62 62 62 63 64 65 65 65 65 66 67 67 67 67
49 43 45 44 33 34 28 26 22 15 21 18 12 15 19 19 21 29 33 36 34 33 30 35 31 36 39 45 48 41 47 43 53 55 58 60 63 64 65 67 67 66 68 69 68 68 69 68 70 70 70 70 70 70 70 70 69 69 69 69 68 69 69 69 69 69 69 69 68 68 68 67 67 67 67 66 64 63 64 64 63 63 63 63 62 63 64 65 66 67 67 67 67 68 67 66 66
42 37 38 36 34 38 27 21 17 18 20 21 21 18 20 20 25 30 31 31 28 26 25 29 33 37 31 43 45 50 53 55 53 56 61 63 64 65 65 65 67 66 67 69 69 68 71 68 70 70 70 71 70 70 70 70 69 69 69 69 69 69 69 69 69 69 69 69 68 69 68 67 67 67 66 65 64 64 64 64 63 62 62 62 62 63 64 64 65 67 67 68 68 67 67 66 66
44 41 39 27 31 33 25 22 21 22 21 22 22 23 21 23 26 28 28 28 24 25 31 37 37 30 31 41 34 49 53 53 57 58 60 61 64 65 66 65 67 66 67 69 70 69 70 68 70 70 70 70 70 70 70 70 69 69 69 70 70 69 69 69 69 69 69 69 69 68 67 67 67 66 65 63 63 63 64 64 63 62 62 62 62 63 64 66 67 67 67 66 66 66 65 65 65
37 31 40 37 26 31 22 21 25 21 22 23 21 26 34 25 25 26 26 26 21 22 33 35 30 22 28 36 36 48 50 52 52 59 61 63 64 66 65 66 65 66 68 69 69 70 71 67 68 70 70 71 70 70 70 70 70 70 70 70 70 70 69 69 69 69 69 69 68 68 67 67 67 66 64 62 61 62 64 64 63 63 62 62 63 64 64 65 66 65 65 65 65 65 64 65 65
33 35 24 32 31 24 23 21 21 22 23 22 21 20 22 24 21 21 24 23 21 22 32 30 28 21 32 28 32 43 48 51 57 61 62 64 65 65 66 67 67 66 68 69 69 69 70 68 65 67 69 70 71 70 70 70 70 70 69 70 70 69 69 69 69 69 69 69 68 68 67 67 66 66 64 62 61 62 64 64 63 63 63 62 62 63 63 63 64 63 63 63 63 63 63 64 63
29 30 40 30 24 20 22 19 20 21 20 20 19 20 24 24 18 19 19 20 24 24 33 31 25 23 32 29 37 44 44 49 58 60 62 64 66 65 66 67 68 67 68 69 69 69 69 69 67 67 67 67 69 70 70 70 70 70 69 70 70 69 69 69 69 69 69 69 68 68 67 67 67 66 65 62 61 62 64 64 64 63 63 62 62 62 62 62 61 61 60 60 62 62 62 62 62
26 28 34 24 21 22 17 15 21 21 19 20 17 20 22 22 18 16 17 17 21 25 29 30 24 30 29 28 35 41 44 52 60 60 62 64 65 65 66 69 67 68 68 69 70 69 69 69 69 67 65 66 67 69 69 70 70 70 70 69 69 70 69 69 69 69 69 68 69 68 67 67 67 66 65 63 62 62 63 64 64 63 63 62 62 62 62 61 59 58 58 58 59 61 62 62 61
35 37 22 19 24 19 27 19 21 27 23 15 17 19 22 20 17 17 17 20 22 23 25 29 35 33 20 25 34 38 47 54 59 61 63 64 65 65 67 68 68 68 68 69 70 69 68 68 69 68 67 64 65 66 67 68 69 70 70 70 69 70 70 69 69 69 69 69 69 68 67 68 67 66 65 63 62 62 62 62 62 63 63 62 62 62 62 59 57 57 56 57 59 60 61 61 61
34 39 28 25 28 25 21 22 23 18 14 16 18 20 20 18 18 16 18 17 20 19 25 27 30 28 25 26 29 34 45 55 60 60 61 63 64 64 66 67 68 67 68 69 68 69 69 69 69 69 68 68 68 66 65 66 68 69 69 69 69 70 70 70 69 69 69 69 69 68 67 67 67 66 65 64 62 61 61 61 60 61 62 62 62 61 59 58 56 56 57 58 59 60 60 60 60
36 36 32 32 25 23 24 17 19 18 15 16 19 19 18 21 20 18 17 15 17 24 28 28 34 26 16 21 22 31 44 58 60 57 61 61 63 64 65 66 66 66 66 66 66 67 67 69 69 69 69 68 68 69 68 69 65 67 68 68 68 69 69 69 69 68 68 68 68 67 66 65 65 65 65 64 64 63 62 61 59 59 61 61 60 59 59 58 57 57 58 58 59 59 60 60 59
38 35 31 26 22 23 24 23 23 22 16 15 21 21 18 20 21 18 19 20 25 32 29 24 30 22 25 22 27 34 49 58 58 56 61 62 63 63 64 65 65 64 65 64 63 64 65 66 67 67 69 68 68 68 68 69 65 64 66 67 67 68 68 68 67 67 66 65 66 65 64 64 62 63 61 63 62 63 61 60 61 58 59 60 60 60 59 59 59 59 58 59 59 59 59 59 58
36 37 23 23 21 23 26 20 22 16 20 19 20 19 16 18 22 23 26 23 21 25 27 28 28 31 26 26 33 35 52 59 56 57 61 61 62 61 62 63 63 62 62 63 62 61 63 65 64 66 67 68 69 68 68 69 68 63 64 64 64 65 66 66 66 63 61 60 62 60 62 65 63 62 62 61 59 62 59 59 60 58 56 56 57 57 58 58 58 58 58 58 58 57 56 56 56
37 23 23 21 24 21 25 19 21 23 16 17 19 19 16 17 21 24 26 24 24 25 26 27 29 30 31 35 40 38 54 58 57 59 61 60 61 61 62 62 63 62 62 61 61 60 60 61 63 65 67 67 68 69 68 68 68 66 68 69 68 66 63 62 66 68 65 67 59 65 66 64 63 63 62 62 61 62 61 59 59 57 56 57 57 57 57 57 56 57 57 56 55 54 54 53 52
28 29 22 14 23 23 22 20 19 16 18 16 19 20 19 17 19 23 19 20 22 21 23 25 24 27 31 34 40 42 55 57 57 59 57 58 58 61 62 61 62 62 62 62 61 59 60 61 62 63 65 66 67 67 69 68 68 68 67 67 68 65 66 68 68 68 68 67 67 66 64 64 63 62 62 63 63 60 61 59 59 58 58 58 58 58 58 57 57 56 56 54 53 52 52 52 51
26 28 15 15 30 22 23 20 19 20 20 17 19 20 20 20 21 24 19 18 22 18 16 22 22 22 27 34 40 46 54 57 57 59 57 58 58 58 59 60 60 60 60 62 61 58 58 60 61 62 64 65 66 66 67 69 68 68 67 68 68 68 68 68 68 67 67 67 66 66 64 64 64 62 61 61 61 63 61 58 59 58 58 58 58 57 57 56 56 54 53 51 50 51 49 48 48
27 19 11 21 22 20 22 23 20 20 20 19 19 20 20 21 22 22 20 17 17 18 19 17 18 20 26 36 40 49 53 55 56 58 57 58 59 58 58 58 59 60 61 60 59 58 57 57 59 61 62 64 65 63 65 68 68 68 68 68 68 68 68 68 68 67 67 67 66 66 65 65 64 62 62 62 61 61 59 58 57 55 55 56 55 53 51 51 49 49 49 49 48 49 49 48 47
26 20 23 22 23 22 23 23 24 22 22 20 20 19 19 22 22 22 21 15 13 14 17 21 20 22 28 36 40 48 52 53 55 56 56 57 58 58 57 58 58 58 56 58 59 58 57 56 57 59 60 63 64 63 63 66 67 68 68 68 68 68 68 68 68 67 67 67 67 66 65 65 65 63 63 62 62 61 60 57 55 52 53 54 52 52 51 50 50 50 49 48 46 47 46 45 43
13 22 22 24 23 22 24 24 25 23 21 19 19 20 22 20 20 22 22 19 18 22 26 26 26 25 27 35 40 47 51 52 53 55 55 56 57 57 58 58 57 57 56 58 58 57 55 55 57 58 60 61 62 62 61 63 67 68 69 68 67 67 68 68 67 67 66 67 66 66 65 64 64 63 63 62 62 61 59 59 55 52 52 52 52 53 52 52 50 49 48 47 45 44 43 42 40
23 17 22 23 24 22 24 23 24 22 21 20 21 21 20 21 18 23 22 22 21 24 27 30 31 31 28 35 39 42 48 51 53 54 55 55 57 58 58 57 58 58 57 57 56 55 56 56 56 57 59 60 61 61 61 63 65 66 68 67 67 67 67 67 67 66 66 67 66 65 64 65 63 63 63 63 62 61 60 59 58 54 53 53 53 54 53 52 49 48 47 46 44 43 40 39 37
20 20 23 24 24 24 25 24 22 22 21 22 22 20 20 21 21 22 20 21 22 23 30 32 34 31 30 32 37 37 42 49 52 54 54 54 55 56 57 57 57 56 57 57 56 55 56 56 54 55 57 58 59 60 60 62 64 66 67 67 67 65 67 67 67 66 66 66 66 66 65 65 64 63 63 63 63 62 61 59 61 57 55 54 54 53 54 52 50 48 47 45 44 42 40 38 36
24 22 23 23 24 25 23 23 23 24 23 23 21 20 22 23 24 21 21 21 24 29 28 33 34 31 31 31 34 37 37 42 49 52 52 53 52 51 53 53 54 54 56 56 55 56 55 54 54 55 56 57 58 58 60 61 63 64 65 66 67 66 67 67 67 67 67 66 66 66 65 64 64 63 62 63 64 62 62 61 60 57 56 54 55 55 54 51 49 48 47 46 43 41 38 36 33
25 24 24 24 25 25 26 23 23 24 25 23 20 20 21 23 22 16 23 29 29 29 28 32 32 29 30 32 33 36 37 38 41 46 50 51 50 50 51 52 52 54 54 55 55 55 54 53 54 53 54 56 57 58 59 60 62 62 64 65 66 66 66 66 66 66 66 66 66 65 65 65 64 64 63 63 63 63 62 62 61 58 56 55 55 55 54 54 50 48 47 44 42 40 36 33 29
25 24 24 24 24 25 25 24 24 24 22 24 22 21 23 22 23 19 24 30 31 28 27 29 31 31 31 33 35 38 38 40 41 44 45 47 49 49 49 50 51 52 53 53 53 53 53 52 52 52 52 54 56 56 58 60 61 62 62 64 65 65 66 65 66 66 65 66 66 66 66 64 63 65 64 63 62 62 61 61 61 59 58 57 56 55 53 52 50 49 47 45 42 37 32 31 29
25 25 20 23 23 23 24 24 24 26 22 24 22 22 21 22 20 23 26 29 30 30 28 28 29 30 34 35 35 37 38 39 41 42 42 44 47 48 49 49 50 51 51 52 51 52 51 51 50 50 51 53 54 54 56 58 60 60 62 62 63 64 64 64 65 65 65 65 65 65 65 64 63 63 63 63 62 61 61 60 60 58 57 57 55 55 54 53 50 48 45 41 37 35 32 30 30
25 24 23 21 21 20 25 26 24 24 24 25 23 17 16 20 22 25 26 27 28 26 26 26 28 29 31 33 34 35 37 40 40 42 42 43 46 47 48 48 49 50 50 51 51 50 49 51 52 52 52 52 54 53 54 57 58 59 61 61 61 62 63 63 63 64 63 63 64 64 64 64 64 63 63 63 62 61 60 60 59 58 58 58 55 53 51 49 47 44 41 37 36 32 29 27 23
22 23 24 25 20 17 25 25 25 23 24 24 23 20 15 20 21 25 28 28 25 24 24 25 26 28 30 34 34 34 35 38 38 39 43 44 44 45 48 48 48 49 50 50 50 50 49 50 50 49 52 53 54 55 55 57 57 58 60 61 60 61 61 61 62 62 62 62 62 63 63 63 63 63 62 61 61 60 59 59 59 58 56 55 54 53 51 49 46 42 38 35 33 29 28 26 24
22 18 20 26 20 20 22 26 24 22 23 24 23 23 19 19 21 26 28 28 27 25 25 25 26 27 28 30 30 31 31 35 37 38 40 42 43 44 46 47 48 48 49 50 50 50 49 49 51 50 52 53 54 55 56 57 57 59 59 57 58 60 60 59 60 60 60 60 61 61 61 62 62 61 61 61 59 58 56 55 55 55 54 54 53 52 50 49 49 44 39 35 31 30 28 26 25
24 20 26 21 25 22 18 25 25 25 23 24 23 17 20 17 22 26 29 28 27 26 25 27 26 27 27 27 29 29 31 32 35 35 37 40 42 43 44 45 47 48 49 49 49 50 49 49 50 50 51 53 53 54 56 57 56 56 56 56 56 57 58 58 57 58 57 59 59 59 60 60 61 60 60 59 59 54 53 53 53 54 54 54 51 51 50 49 46 44 41 41 33 30 27 25 22
21 25 18 29 18 19 12 24 24 28 23 22 23 21 20 19 22 25 26 28 27 25 24 24 26 27 28 30 30 28 29 31 31 33 34 37 40 42 43 45 46 47 48 49 49 49 49 50 51 51 52 53 53 54 54 54 53 53 52 51 52 53 54 54 54 56 58 57 58 58 58 58 58 59 57 56 56 55 53 50 50 52 54 53 53 50 48 46 44 41 38 34 31 27 23 22 20
19 21 22 20 23 22 18 19 23 24 22 21 22 22 22 22 22 23 23 27 25 24 24 24 24 25 26 28 28 28 29 30 30 32 34 36 39 41 42 44 46 47 48 48 49 49 49 49 50 52 52 52 53 53 50 49 50 49 50 49 49 49 49 51 53 55 56 55 55 57 56 57 56 57 57 54 53 51 52 52 48 49 50 52 52 51 46 45 42 39 34 30 28 26 23 22 21
12 19 18 21 15 21 18 20 26 24 22 22 22 22 21 22 22 23 23 25 25 24 25 25 25 26 26 26 28 29 32 29 31 35 36 35 39 41 42 43 45 47 47 47 48 49 49 49 50 52 52 51 51 51 50 48 49 49 49 48 49 48 48 49 51 53 52 53 54 54 54 54 54 54 53 51 49 48 47 47 46 47 48 48 48 47 45 42 38 35 31 27 26 25 23 22 21
25 29 27 19 20 18 23 24 26 26 23 22 22 23 23 23 23 24 24 26 27 26 25 26 27 28 28 29 28 31 32 30 42 39 38 38 40 41 42 43 45 46 46 47 48 48 48 48 50 50 51 50 50 49 49 49 49 49 49 50 51 48 47 47 48 49 50 51 50 52 52 52 52 51 49 48 48 46 45 45 45 46 46 46 46 46 44 42 38 33 29 27 25 22 22 21 20
20 22 23 21 29 17 23 25 26 27 24 21 24 24 24 23 23 23 24 24 24 24 25 26 26 26 28 30 31 33 32 36 39 37 36 38 39 42 43 43 44 45 46 47 47 48 48 48 49 50 50 49 49 49 49 50 50 50 50 51 47 45 45 47 47 45 46 46 47 48 49 50 50 49 47 47 45 44 42 43 43 43 45 45 47 46 42 39 35 31 28 24 24 21 21 21 20
27 21 25 25 20 28 25 24 26 27 24 20 23 23 23 23 24 24 24 24 25 25 26 26 26 28 29 29 31 31 33 34 33 33 37 35 41 42 42 43 44 44 46 47 48 48 48 48 48 50 49 49 49 49 49 50 50 50 50 47 46 44 42 44 45 42 43 44 44 46 46 47 48 47 46 45 43 41 41 42 44 45 44 45 45 43 40 37 33 29 26 24 21 21 20 23 20
27 26 23 17 29 20 10 26 27 26 23 24 26 26 24 24 25 26 26 26 26 28 28 29 30 29 29 28 29 32 32 33 34 33 32 34 39 40 41 42 43 45 46 46 47 48 48 48 48 49 48 48 48 48 49 49 46 44 43 42 41 44 42 38 39 40 40 40 42 42 43 44 45 45 44 43 42 39 39 41 41 45 48 44 42 42 39 35 33 30 28 26 24 20 20 23 27
31 30 26 22 27 25 19 16 25 27 27 29 26 27 25 25 24 24 26 29 28 29 30 30 31 35 34 36 37 35 31 31 33 33 34 34 36 38 40 42 43 45 46 47 47 47 47 48 48 48 48 48 48 47 47 42 41 40 39 39 39 39 38 38 38 39 41 41 38 39 41 40 41 42 41 39 37 38 39 39 39 40 43 42 41 40 38 34 33 32 30 27 26 22 20 21 26
26 32 28 23 25 21 26 28 24 23 25 29 30 13 16 24 24 24 24 25 24 28 30 30 31 33 35 32 33 35 38 36 34 33 33 35 35 37 39 42 43 45 46 47 48 47 47 47 48 48 47 47 47 47 44 42 41 39 39 41 42 42 40 39 41 40 38 40 41 38 36 36 37 38 38 39 38 39 37 38 39 40 41 41 40 39 38 35 34 33 31 30 29 26 22 22 24
24 18 31 26 26 29 29 28 27 17 15 29 29 16 13 20 18 16 19 21 19 24 28 26 27 29 30 33 34 34 35 36 37 35 35 34 36 37 39 41 43 44 45 47 47 47 47 48 48 48 47 46 47 45 42 41 42 41 42 44 45 44 42 42 44 43 41 40 39 37 36 33 34 34 34 34 35 35 37 37 39 40 40 40 40 40 37 36 36 35 34 31 29 28 28 26 28
17 34 33 31 28 28 30 29 28 24 31 32 29 26 21 21 20 22 22 22 23 25 26 29 30 30 31 31 32 34 35 35 38 38 36 35 35 36 36 39 41 42 44 47 47 47 47 47 48 47 46 46 46 43 41 43 43 42 43 46 46 45 45 44 44 44 42 38 36 35 32 30 30 31 32 32 32 32 33 34 36 37 39 40 41 41 39 38 38 38 35 34 33 30 31 29 30
25 33 34 32 30 32 32 30 28 29 25 20 27 33 18 18 24 26 26 22 21 20 19 21 23 27 28 31 33 35 36 37 36 38 38 36 36 36 36 38 40 42 45 47 47 47 47 47 48 47 46 45 44 42 41 42 43 43 45 47 47 46 47 46 43 39 37 35 35 32 31 30 29 30 29 30 30 30 30 32 34 35 36 37 38 39 38 38 38 36 35 35 34 31 31 34 29
32 33 34 33 34 33 32 28 29 28 22 20 27 28 17 12 22 19 27 23 19 17 16 17 24 27 33 35 36 35 35 38 39 36 36 37 36 36 37 38 40 42 45 47 47 47 47 47 47 46 45 44 42 40 41 41 43 43 45 46 47 45 41 37 38 37 35 34 34 32 32 30 28 26 27 28 29 28 29 30 33 34 35 36 35 37 38 38 37 36 35 35 34 33 32 33 30
34 36 33 32 32 31 30 31 27 25 19 21 26 28 18 14 17 18 22 22 17 11 14 17 27 32 33 35 36 38 35 38 38 38 37 36 36 35 37 37 39 41 45 46 47 47 47 47 47 46 45 44 41 40 42 41 43 44 44 45 46 45 40 38 37 35 33 32 32 31 29 29 27 26 25 26 28 28 28 29 31 33 34 33 34 37 37 36 35 35 35 35 35 34 32 32 30
36 33 30 30 27 28 29 27 27 21 15 23 25 29 26 9 8 22 21 21 23 19 14 12 17 23 32 36 35 33 34 36 37 37 37 37 36 36 37 37 38 41 44 45 47 47 46 46 46 46 46 44 41 40 40 40 42 43 43 45 46 43 38 38 38 36 33 33 33 32 30 29 26 26 25 24 25 26 26 27 29 32 31 32 33 34 34 33 33 33 32 32 32 34 32 31 31
33 31 28 18 15 17 18 25 20 20 16 26 25 26 22 19 8 19 20 20 21 23 23 23 24 24 29 33 36 37 38 37 37 38 38 38 38 38 38 37 39 40 43 44 45 45 45 45 45 45 45 44 41 40 39 40 41 41 41 43 43 42 38 37 37 35 33 33 33 32 29 28 26 25 24 23 24 27 25 26 28 29 29 31 32 32 32 32 31 30 30 32 31 32 30 31 28
31 26 24 17 12 14 13 18 16 14 19 20 22 26 22 20 21 22 19 18 20 23 26 29 29 28 29 33 36 35 40 38 38 38 39 40 39 39 38 39 40 41 43 44 45 44 45 45 44 45 44 45 43 40 39 40 41 42 42 43 41 37 35 36 36 35 34 35 35 32 30 29 27 26 24 24 24 25 24 25 27 28 29 30 31 31 32 31 31 28 30 30 32 30 29 31 29
29 34 27 20 16 17 14 11 8 12 18 20 20 24 22 21 14 25 22 25 28 28 29 31 32 33 34 35 35 35 36 36 39 38 39 39 39 38 39 39 40 42 43 44 44 44 44 45 44 44 44 44 43 42 41 41 42 42 41 41 38 35 34 34 34 37 36 35 34 33 30 30 28 27 26 25 27 25 25 26 27 28 29 29 29 30 31 29 29 27 28 30 26 25 27 25 26
33 35 31 23 21 16 5 17 15 16 17 21 22 21 21 21 25 27 28 29 28 29 30 32 31 32 34 34 35 35 35 35 38 38 39 38 37 38 38 39 40 42 43 44 44 44 45 44 44 44 43 43 43 40 41 42 42 40 40 39 38 35 33 33 34 34 34 36 34 32 31 29 29 27 26 27 26 26 26 26 26 27 27 28 27 28 27 26 28 25 24 24 25 28 26 27 24
29 30 26 26 30 21 21 22 20 19 17 15 24 19 21 20 16 18 20 20 22 26 27 28 31 33 34 35 38 35 35 38 39 40 39 38 37 37 38 38 40 41 43 44 44 44 45 45 44 44 43 43 43 40 39 40 41 40 39 38 37 35 34 33 32 33 33 33 33 32 32 31 29 27 27 27 26 26 26 25 24 25 26 26 26 25 25 25 26 23 22 24 22 22 23 24 22
30 26 27 32 34 32 20 13 21 18 13 16 21 17 11 13 13 23 22 22 20 22 22 23 28 32 32 37 38 37 38 38 38 38 38 37 37 37 38 38 39 40 42 44 44 45 45 45 44 43 42 42 42 41 39 39 39 39 38 38 36 35 33 33 32 32 31 30 30 30 29 28 27 27 27 29 27 26 26 24 24 24 25 25 25 23 24 24 23 19 22 20 19 20 18 15 18
30 28 39 23 21 20 21 18 15 15 17 17 18 16 17 18 14 18 14 20 20 21 24 24 23 26 31 33 35 36 37 38 38 37 37 37 37 38 38 38 39 40 42 43 44 45 45 44 44 43 43 43 43 42 40 39 38 38 38 36 36 34 33 32 31 30 29 29 29 28 28 27 26 25 23 25 24 24 23 23 23 23 23 23 22 22 22 20 19 14 15 14 15 14 12 12 13
35 33 29 34 25 20 22 19 24 15 13 17 20 16 10 26 18 18 15 14 20 19 23 23 24 26 28 31 35 37 38 38 41 39 39 39 38 37 37 38 38 39 41 43 44 44 44 44 43 43 43 43 42 41 40 39 38 37 38 36 35 34 33 32 30 29 27 27 27 26 26 26 25 23 24 24 22 22 22 21 21 20 21 20 19 17 16 15 12 12 11 12 12 11 11 11 11
27 27 25 28 27 29 26 24 21 16 13 11 11 11 14 17 21 18 13 14 18 21 24 32 31 31 32 33 36 39 38 40 41 40 39 38 37 37 37 38 39 40 41 42 44 44 43 43 43 42 42 42 42 41 41 39 37 36 36 34 34 33 32 31 28 28 26 26 25 25 25 25 25 24 24 22 21 21 20 20 19 19 17 15 14 13 12 10 10 11 11 11 11 11 10 11 11
28 26 26 25 27 24 21 19 24 24 17 17 13 14 18 20 23 19 15 17 22 26 28 30 32 30 35 37 36 36 40 39 38 38 38 39 36 36 37 38 39 39 39 40 42 43 43 43 42 42 41 41 41 41 38 37 36 36 35 34 33 32 31 29 28 25 23 23 22 23 23 22 22 23 22 22 20 20 18 18 17 16 14 14 14 13 10 9 10 10 11 15 11 11 11 11 11